Regional Weather Roundup
Issued by NWS

Home | Current Version | Previous Version | Graphics & Text | Print | Product List | Glossary On
Versions: 1 2 3 4 5 6 7 8 9 10 11 12 13 14 15 16 17 18 19 20 21 22 23 24 25 26 27 28 29 30 31 32 33 34 35 36 37 38 39 40 41 42 43 44 45 46 47 48 49 50
000
ASUS45 KCYS 201810
RWRWY

WYOMING REGIONAL WEATHER ROUNDUP
NATIONAL WEATHER SERVICE CHEYENNE WY
1200 PM MDT WED SEP 20 2017

NOTE:  "FAIR" INDICATES FEW OR NO CLOUDS BELOW 12,000 FEET
WITH NO SIGNIFICANT WEATHER AND/OR OBSTRUCTIONS TO VISIBILITY.

WYZ001-201900-
YELLOWSTONE NATIONAL PARK

CITY           SKY/WX    TMP DP  RH WIND       PRES   REMARKS
LK YELLOWSTONE   N/A     34  31  88 VRB5      29.84  WCI  30
6HR MIN TEMP:  28; 6HR MAX TEMP:  34;

W YELLOWSTONE  NOT AVBL

$$
WYZ002>013-054>058-071-098>099-201900-
NORTHERN WYOMING

CITY           SKY/WX    TMP DP  RH WIND       PRES   REMARKS
JACKSON        CLOUDY    46  28  49 S13       29.86F
CODY           FAIR      55  25  31 W14G28    29.76S
GREYBULL       FAIR      60  30  32 S13G18    29.75F
6HR MIN TEMP:  37; 6HR MAX TEMP:  60;

WORLAND        FAIR      61  29  29 S18G25    29.77F
6HR MIN TEMP:  30; 6HR MAX TEMP:  61;

SHERIDAN       LGT RAIN  64  23  21 W16G29    29.71F
6HR MIN TEMP:  40; 6HR MAX TEMP:  64; 6HR PCP: TRACE;

BUFFALO        FAIR      58  20  22 VRB3      29.76F
6HR MIN TEMP:  40; 6HR MAX TEMP:  58;

GILLETTE       FAIR      59  27  29 SW25G38   29.76F
6HR MIN TEMP:  42; 6HR MAX TEMP:  59;

HULETT         FAIR      59  27  29 SW12G24   29.79F
NEWCASTLE      FAIR      61  21  21 SW13G22   29.86S

$$
WYZ014>020-022>026-101>103-201900-
CENTRAL WYOMING

CITY           SKY/WX    TMP DP  RH WIND       PRES   REMARKS
BIG PINEY      PTSUNNY   51  27  39 W21G29    29.96F
6HR MIN TEMP:  25; 6HR MAX TEMP:  49;

PINEDALE       MOCLDY    45  28  53 S10       29.97F
DUBOIS         FAIR      45  27  49 W20G35    29.85S
LANDER           N/A    N/A N/A N/A MISG      29.82F
RIVERTON       FAIR      58  19  22 W17G25    29.84F
6HR MIN TEMP:  36; 6HR MAX TEMP:  58;

CASPER         FAIR      59  24  26 SW26G38   29.88F
DOUGLAS        FAIR      63  23  21 W21G31    29.88F
6HR MIN TEMP:  40; 6HR MAX TEMP:  64;


$$
WYZ021-027>030-104>119-201900-
SOUTHERN WYOMING

CITY           SKY/WX    TMP DP  RH WIND       PRES   REMARKS
EVANSTON       FAIR      54  28  36 MISG      29.97F
6HR MIN TEMP:  32; 6HR MAX TEMP:  54;

KEMMERER         N/A     50  27  40 SW18G32   29.97F
FORT BRIDGER   FAIR      56  29  35 W15G25    30.00F
ROCK SPRINGS   FAIR      52  24  33 W9        29.99F
6HR MIN TEMP:  33; 6HR MAX TEMP:  52;

DIXON          FAIR      54  37  51 CALM      30.03F
RAWLINS        FAIR      51  33  50 SW21G31   29.99F
6HR MIN TEMP:  34; 6HR MAX TEMP:  51;

SARATOGA       FAIR      52  32  46 SW5       30.01F
LARAMIE        FAIR      60  31  33 W18G29    29.97F
6HR MIN TEMP:  35; 6HR MAX TEMP:  61;

CHEYENNE       FAIR      58  32  37 SW23G35   29.98F
6HR MIN TEMP:  43; 6HR MAX TEMP:  59;

TORRINGTON     FAIR      68  21  16 W12G22    29.89F
6HR MIN TEMP:  45; 6HR MAX TEMP:  68;

PINE BLUFFS    FAIR      61  32  33 S17       29.97F

$$



USA.gov is the U.S. government's official web portal to all federal, state and local government web resources and services.